Oxford, NC

9:15 PM EST on November 16, 2019 (GMT -0500)
Henderson-Oxford

Weather History for KHNZ - July, 2019

Change the Weather History Date:

Monday, July 29, 2019

  Actual Average (KTDF) Record (KTDF)
Temperature  
Mean Temperature 78 °F -  
Max Temperature 87 °F 88 °F 98 °F (2002)
Min Temperature 69 °F 65 °F 54 °F (1977)
Cooling Degree Days 13    
Growing Degree Days 28 (Base 50)    
Moisture  
Dew Point 64 °F    
Average Humidity 57    
Maximum Humidity 81    
Minimum Humidity 42    
Precipitation  
Precipitation 0.00 in - - ()
Sea Level Pressure  
Sea Level Pressure 30.06 in    
Wind  
Wind Speed 0 mph (South)    
Max Wind Speed 7 mph    
Max Gust Speed -    
Visibility 10 miles    
Events      
Averages and records for this station are not official NWS values.
T = Trace of Precipitation, MM = Missing Value Source: NWS Daily Summary

Daily Weather History Graph

Daily Weather History Graph

Search for Another Location

Airport or City:

Astronomy

Jul. 29, 2019 Rise Set
Actual Time 6:18 AM EDT 8:22 PM EDT
Civil Twilight 5:49 AM EDT 8:51 PM EDT
Nautical Twilight 5:14 AM EDT 9:26 PM EDT
Astronomical Twilight 4:36 AM EDT 10:03 PM EDT
Moon 3:30 AM EDT (7/29) 6:22 PM EDT (7/29)
Length of Visible Light 15h 01m
Length of Day
14h 04m
Waning Crescent, 8% of the Moon is Illuminated
Jul 29
Waning Crescent
Jul 31
New
Aug 7
First Quarter
Aug 15
Full
Aug 23
Last Quarter

Hourly Weather History & Observations

Time (EDT) Temp. Heat Index Dew Point Humidity Pressure Visibility Wind Dir Wind Speed Gust Speed Precip Events Conditions
8:15 AM 69.8 °F - 63.7 °F 81% 30.12 in 10.0 mi Calm Calm - N/A   Clear
8:35 AM 72.1 °F - 64.6 °F 77% 30.11 in 10.0 mi Calm Calm - N/A   Clear
8:55 AM 74.3 °F - 64.2 °F 71% 30.11 in 10.0 mi Calm Calm - N/A   Clear
9:15 AM 76.6 °F - 63.9 °F 65% 30.10 in 10.0 mi Calm Calm - N/A   Clear
9:35 AM 78.3 °F - 64.9 °F 63% 30.10 in 10.0 mi Calm Calm - N/A   Clear
9:55 AM 79.9 °F - 64.9 °F 60% 30.10 in 10.0 mi Calm Calm - N/A   Clear
10:15 AM 81.3 °F 83.3 °F 65.8 °F 59% 30.11 in 10.0 mi Calm Calm - N/A   Clear
10:35 AM 82.6 °F 84.5 °F 65.7 °F 56% 30.11 in 10.0 mi Calm Calm - N/A   Clear
10:55 AM 82.9 °F 85.0 °F 65.8 °F 56% 30.10 in 10.0 mi Calm Calm - N/A   Clear
11:15 AM 83.5 °F 85.1 °F 64.8 °F 53% 30.10 in 10.0 mi Calm Calm - N/A   Clear
11:35 AM 84.0 °F 85.6 °F 64.6 °F 52% 30.10 in 10.0 mi Calm Calm - N/A   Clear
11:55 AM 84.7 °F 85.6 °F 63.3 °F 48% 30.10 in 10.0 mi Calm Calm - N/A   Clear
12:15 PM 85.6 °F 86.6 °F 63.1 °F 47% 30.10 in 10.0 mi Calm Calm - N/A   Clear
12:35 PM 86.0 °F 87.1 °F 63.3 °F 47% 30.10 in 10.0 mi Calm Calm - N/A   Clear
12:55 PM 85.6 °F 86.6 °F 63.5 °F 47% 30.09 in 10.0 mi Calm Calm - N/A   Scattered Clouds
1:15 PM 86.0 °F 87.1 °F 63.7 °F 47% 30.09 in 10.0 mi Calm Calm - N/A   Scattered Clouds
1:35 PM 86.5 °F 87.0 °F 62.2 °F 44% 30.08 in 10.0 mi Calm Calm - N/A   Clear
1:55 PM 86.4 °F 87.6 °F 63.9 °F 47% 30.08 in 10.0 mi Calm Calm - N/A   Clear
2:15 PM 86.5 °F 86.8 °F 61.5 °F 43% 30.07 in 10.0 mi Calm Calm - N/A   Scattered Clouds
2:35 PM 87.1 °F 87.5 °F 62.1 °F 43% 30.07 in 10.0 mi Calm Calm - N/A   Clear
2:55 PM 87.4 °F 87.7 °F 61.5 °F 42% 30.06 in 10.0 mi Calm Calm - N/A   Clear
3:15 PM 86.2 °F 86.3 °F 61.5 °F 43% 30.06 in 10.0 mi Calm Calm - N/A   Clear
3:35 PM 85.1 °F 85.2 °F 61.0 °F 44% 30.05 in 10.0 mi Calm Calm - N/A   Clear
3:55 PM 87.8 °F 88.5 °F 63.0 °F 43% 30.04 in 10.0 mi Calm Calm - N/A   Clear
4:35 PM 86.9 °F 87.8 °F 63.0 °F 45% 30.04 in 10.0 mi Calm Calm - N/A   Clear
4:55 PM 87.4 °F 89.1 °F 64.9 °F 47% 30.03 in 10.0 mi Calm Calm - N/A   Clear
5:15 PM 86.7 °F 87.5 °F 63.3 °F 45% 30.04 in 10.0 mi South 6.9 mph - N/A   Clear
5:35 PM 84.9 °F 85.6 °F 62.8 °F 47% 30.03 in 10.0 mi South 6.9 mph - N/A   Clear
5:55 PM 85.5 °F 86.8 °F 64.0 °F 49% 30.03 in 10.0 mi South 3.5 mph - N/A   Clear
6:15 PM 85.3 °F 86.1 °F 62.8 °F 47% 30.03 in 10.0 mi Calm Calm - N/A   Clear
6:35 PM 84.7 °F 85.9 °F 63.5 °F 49% 30.03 in 10.0 mi SSW 3.5 mph - N/A   Clear
6:55 PM 83.8 °F 84.7 °F 63.0 °F 49% 30.03 in 10.0 mi South 4.6 mph - N/A   Clear
7:15 PM 82.8 °F 83.8 °F 62.8 °F 51% 30.03 in 10.0 mi Calm Calm - N/A   Clear
7:35 PM 81.7 °F 83.2 °F 63.9 °F 55% 30.03 in 10.0 mi Calm Calm - N/A   Clear
7:55 PM 80.2 °F 82.0 °F 64.6 °F 59% 30.03 in 10.0 mi Calm Calm - N/A   Clear
8:15 PM 78.4 °F - 64.9 °F 63% 30.03 in 10.0 mi Calm Calm - N/A   Clear
8:35 PM 76.5 °F - 66.2 °F 70% 30.03 in 10.0 mi Calm Calm - N/A   Clear
8:55 PM 75.0 °F - 66.4 °F 74% 30.03 in 10.0 mi Calm Calm - N/A   Clear
9:15 PM 75.0 °F - 64.9 °F 71% 30.04 in 10.0 mi Calm Calm - N/A   Clear
9:35 PM 74.5 °F - 64.6 °F 71% 30.04 in 10.0 mi Calm Calm - N/A   Clear
9:55 PM 73.8 °F - 64.6 °F 73% 30.05 in 10.0 mi Calm Calm - N/A   Clear
10:15 PM 74.3 °F - 64.4 °F 71% 30.05 in 10.0 mi Calm Calm - N/A   Clear
10:35 PM 73.8 °F - 64.6 °F 73% 30.06 in 10.0 mi Calm Calm - N/A   Clear
10:55 PM 73.8 °F - 64.4 °F 72% 30.05 in 10.0 mi Calm Calm - N/A   Clear
11:15 PM 73.4 °F - 64.0 °F 72% 30.05 in 10.0 mi Calm Calm - N/A   Clear
11:35 PM 72.5 °F - 63.9 °F 74% 30.05 in 10.0 mi Calm Calm - N/A   Clear
11:55 PM 72.3 °F - 63.7 °F 74% 30.05 in 10.0 mi Calm Calm - N/A   Clear